Regional Weather Roundup
Issued by NWS

Home | Current Version | Previous Version | Graphics & Text | Print | Product List | Glossary On
Versions: 1 2 3 4 5 6 7 8 9 10 11 12 13 14 15 16 17 18 19 20 21 22 23 24 25 26 27 28 29 30 31 32 33 34 35 36 37 38 39 40 41 42 43 44 45 46 47 48 49 50
000
ASUS43 KFSD 280310
RWRSD

WEATHER ROUNDUP FOR SOUTH DAKOTA
NATIONAL WEATHER SERVICE SIOUX FALLS SD
1000 PM CDT MON APR 27 2015

NOTE: "FAIR" INDICATES FEW OR NO CLOUDS BELOW 12,000 FEET WITH NO
SIGNIFICANT WEATHER AND/OR OBSTRUCTIONS TO VISIBILITY.


SDZ001>005-009-010-012>017-280400-
NORTHWEST AND NORTH CENTRAL SOUTH DAKOTA

CITY           SKY/WX    TMP DP  RH WIND       PRES   REMARKS
BUFFALO          N/A     45  37  73 W3        30.27S
FAITH            N/A     46  38  73 N10       30.32R
MOBRIDGE       MOCLDY    48  44  86 N9        30.29R
$$

SDZ012>016-024>037-041>051-057-063-072>074-280400-
SOUTHWEST AND SOUTH CENTRAL SOUTH DAKOTA

CITY           SKY/WX    TMP DP  RH WIND       PRES   REMARKS
RAPID CTY ARPT CLOUDY    45  39  79 N8        30.34R
PIERRE         PTCLDY    49  42  77 N15       30.28R
CUSTER         CLOUDY    41  38  89 CALM      30.32R
ELLSWORTH AFB  CLOUDY    46  39  76 N9        30.34
PHILIP         CLOUDY    48  42  80 N7        30.32R
PINE RIDGE     PTCLDY    44  38  79 NE5       30.32R
SPEARFISH      CLOUDY    41  36  81 CALM      30.36S
WINNER         FAIR      52  40  63 NW13      30.27R
$$

SDZ004>011-016>023-039-040-280400-
NORTHEAST SOUTH DAKOTA

CITY           SKY/WX    TMP DP  RH WIND       PRES   REMARKS
ABERDEEN       MOCLDY    54  41  61 N15G26    30.24R
WATERTOWN      PTCLDY    54  25  32 CALM      30.17S
BROOKINGS      MOCLDY    57  25  28 CALM      30.19R
SISSETON         N/A     56  41  57 N13       30.18R
$$

SDZ017-020-022-023-036>040-048>070-280400-
SOUTHEAST SOUTH DAKOTA

CITY           SKY/WX    TMP DP  RH WIND       PRES   REMARKS
SIOUX FALLS    MOCLDY    50  36  58 CALM      30.17R
HURON          CLEAR     58  43  57 N15       30.19R
CHAMBERLAIN    CLEAR     53  42  67 N21       30.24R
MITCHELL       PTCLDY    60  27  28 N3        30.17R
YANKTON        MOCLDY    54  30  40 NW7       30.17R
$$

ABBREVIATIONS USED IN REMARKS
   TC - TEMPERATURE IN CELSIUS
  WCI - WIND CHILL INDEX
   HX - HEAT INDEX
  VSB - VISIBILITY




USA.gov is the U.S. government's official web portal to all federal, state and local government web resources and services.